Chattanooga, TN

10:33 AM EDT on April 27, 2017 (GMT -0400)
Lovell

Weather History for KCHA - June, 2013

Change the Weather History Date:

Sunday, June 16, 2013

  Actual Average Record
Temperature  
Mean Temperature 77 °F 77 °F  
Max Temperature 88 °F 87 °F 99 °F (1936)
Min Temperature 66 °F 66 °F 49 °F (1917)
Cooling Degree Days 12 12  
Month to date cooling degree days 199 161  
Year to date cooling degree days 375 357  
Since 1 June cooling degree days 199 161  
Growing Degree Days 27 (Base 50)    
Moisture  
Dew Point 66 °F    
Average Humidity 72    
Maximum Humidity 93    
Minimum Humidity 50    
Precipitation  
Precipitation 0.45 in 0.14 in 2.04 in (1940)
Month to date precipitation 3.03 2.06  
Year to date precipitation 37.70 24.88  
Snow  
Snow 0.00 in - - ()
Month to date snowfall 0.0  
Since 1 June snowfall 0.0  
Snow Depth 0.00 in    
Sea Level Pressure  
Sea Level Pressure 30.05 in    
Wind  
Wind Speed 4 mph (SE)    
Max Wind Speed 30 mph    
Max Gust Speed 43 mph    
Visibility 9 miles    
Events Rain , Thunderstorm    
T = Trace of Precipitation, MM = Missing Value Source: NWS Daily Summary

Daily Weather History Graph

Daily Weather History Graph

Search for Another Location

Airport or City:

Trip Planner

Search our weather history database for the weather conditions in past years. The results will help you decide how hot, cold, wet, or windy it might be!

Date:

Astronomy

Jun. 16, 2013 Rise Set
Actual Time 6:26 AM EDT 8:56 PM EDT
Civil Twilight 5:56 AM EDT 9:26 PM EDT
Nautical Twilight 5:19 AM EDT 10:03 PM EDT
Astronomical Twilight 4:39 AM EDT 10:43 PM EDT
Moon 1:45 PM EDT (6/16) 1:16 AM EDT (6/16)
Length of Visible Light 15h 29m
Length of Day
14h 30m
Waxing Crescent, 49% of the Moon is Illuminated
Jun 16
Waxing Crescent
Jun 16
First Quarter
Jun 23
Full
Jun 30
Last Quarter
Jul 8
New

Hourly Weather History & Observations

Time (EDT) Temp. Heat Index Dew Point Humidity Pressure Visibility Wind Dir Wind Speed Gust Speed Precip Events Conditions
12:53 AM 73.0 °F - 64.0 °F 73% 30.07 in 10.0 mi Calm Calm - N/A   Clear
1:53 AM 71.1 °F - 64.0 °F 78% 30.07 in 10.0 mi Calm Calm - N/A   Clear
2:53 AM 70.0 °F - 64.0 °F 81% 30.07 in 10.0 mi Calm Calm - N/A   Clear
3:53 AM 66.9 °F - 64.0 °F 90% 30.06 in 10.0 mi Calm Calm - N/A   Clear
4:53 AM 66.0 °F - 63.0 °F 90% 30.08 in 10.0 mi Calm Calm - N/A   Clear
5:53 AM 66.9 °F - 64.0 °F 90% 30.08 in 10.0 mi Calm Calm - N/A   Mostly Cloudy
6:53 AM 66.9 °F - 64.0 °F 90% 30.11 in 10.0 mi Calm Calm - N/A   Mostly Cloudy
7:53 AM 69.1 °F - 64.9 °F 87% 30.11 in 10.0 mi Calm Calm - N/A   Mostly Cloudy
8:53 AM 72.0 °F - 64.0 °F 76% 30.12 in 10.0 mi SSE 3.5 mph - N/A   Mostly Cloudy
9:53 AM 75.9 °F - 63.0 °F 64% 30.12 in 10.0 mi SSE 5.8 mph - N/A   Mostly Cloudy
10:53 AM 78.1 °F - 63.0 °F 60% 30.11 in 10.0 mi SE 3.5 mph - N/A   Mostly Cloudy
11:53 AM 82.9 °F 84.4 °F 64.0 °F 53% 30.09 in 10.0 mi Variable 5.8 mph - N/A   Scattered Clouds
12:53 PM 84.9 °F 86.6 °F 64.9 °F 51% 30.07 in 10.0 mi Variable 5.8 mph - N/A   Scattered Clouds
1:53 PM 84.9 °F 86.6 °F 64.9 °F 51% 30.05 in 10.0 mi South 4.6 mph - N/A   Scattered Clouds
2:53 PM 87.1 °F 89.2 °F 66.0 °F 49% 30.04 in 10.0 mi South 3.5 mph - N/A   Scattered Clouds
3:53 PM 88.0 °F 90.3 °F 66.0 °F 48% 30.02 in 10.0 mi South 8.1 mph - N/A   Scattered Clouds
4:53 PM 87.1 °F 89.2 °F 66.0 °F 49% 30.00 in 10.0 mi South 6.9 mph - N/A   Scattered Clouds
5:53 PM 86.0 °F 88.8 °F 66.9 °F 53% 29.99 in 10.0 mi SSW 4.6 mph - N/A   Mostly Cloudy
6:30 PM 84.2 °F 86.6 °F 66.2 °F 55% 30.00 in 9.0 mi Calm Calm - 0.00 in Rain , Thunderstorm Light Thunderstorms and Rain
6:42 PM 77.0 °F - 71.6 °F 83% 30.00 in 1.0 mi NNE 23.0 mph 42.6 mph 0.06 in Rain , Thunderstorm Heavy Thunderstorms and Rain
6:43 PM 75.2 °F - 69.8 °F 83% 30.00 in 0.5 mi NE 29.9 mph 42.6 mph 0.08 in Rain , Thunderstorm Heavy Thunderstorms and Rain
6:48 PM 73.4 °F - 62.6 °F 69% 30.01 in 2.0 mi ENE 15.0 mph 42.6 mph 0.31 in Rain , Thunderstorm Thunderstorms and Rain
6:49 PM 73.4 °F - 62.6 °F 69% 30.01 in 4.0 mi ENE 13.8 mph 42.6 mph 0.36 in Rain , Thunderstorm Thunderstorms and Rain
6:53 PM 73.9 °F - 64.0 °F 71% 30.00 in 6.0 mi NE 11.5 mph - 0.40 in Rain , Thunderstorm Thunderstorms and Rain
7:24 PM 73.4 °F - 66.2 °F 78% 30.03 in 10.0 mi ENE 6.9 mph - 0.04 in   Overcast
7:43 PM 73.4 °F - 66.2 °F 78% 30.03 in 10.0 mi North 8.1 mph - 0.04 in Thunderstorm Thunderstorm
7:53 PM 73.0 °F - 69.1 °F 87% 30.01 in 10.0 mi North 5.8 mph - 0.04 in Rain , Thunderstorm Light Thunderstorms and Rain
8:16 PM 73.4 °F - 69.8 °F 88% 30.04 in 10.0 mi ESE 6.9 mph - 0.01 in Rain Light Rain
8:53 PM 73.0 °F - 68.0 °F 84% 30.04 in 10.0 mi ESE 5.8 mph - 0.01 in   Mostly Cloudy
9:53 PM 73.9 °F - 68.0 °F 82% 30.05 in 10.0 mi South 5.8 mph - N/A   Mostly Cloudy
10:53 PM 73.0 °F - 70.0 °F 90% 30.04 in 6.0 mi SSE 3.5 mph - 0.00 in Rain Light Rain
11:53 PM 73.0 °F - 70.0 °F 90% 30.03 in 6.0 mi SSE 3.5 mph - 0.00 in   Mostly Cloudy